#Datum;Uhrzeit;WR;Pac;DaySum;Status;WR;Pac;DaySum;Status;Pdc1;Udc;Temp;WR;Pac;DaySum;Status;Pdc1;Udc;Temp;WR;Pac;DaySum;Status;Pdc1;Udc;Temp;WR;Pac;DaySum;Status;Pdc1;Pdc2;Udc1;Udc2;Temp;WR;Pac;DaySum;Status;Pdc1;Pdc2;Udc1;Udc2;Temp;WR;Pac;DaySum;Status;Pdc1;Udc;Temp;WR;Pac;DaySum;Status;Pdc1;Udc;Temp;WR;Pac;DaySum;Status;Pdc1;Udc;Temp
20.10.18;23:55:00;1;247;7093;0;2;0;10492;0;0;0;0;3;0;6318;0;0;0;0;4;0;8298;0;0;0;0;5;0;18905;0;0;0;0;0;0;6;0;14378;0;0;0;0;0;0;7;0;12712;0;0;0;0;8;0;12305;0;0;0;0;9;0;6439;0;0;0;0
20.10.18;23:50:00;1;246;7073;0;2;0;10492;0;0;0;0;3;0;6318;0;0;0;0;4;0;8298;0;0;0;0;5;0;18905;0;0;0;0;0;0;6;0;14378;0;0;0;0;0;0;7;0;12712;0;0;0;0;8;0;12305;0;0;0;0;9;0;6439;0;0;0;0
20.10.18;23:45:00;1;246;7052;0;2;0;10492;0;0;0;0;3;0;6318;0;0;0;0;4;0;8298;0;0;0;0;5;0;18905;0;0;0;0;0;0;6;0;14378;0;0;0;0;0;0;7;0;12712;0;0;0;0;8;0;12305;0;0;0;0;9;0;6439;0;0;0;0
20.10.18;23:40:00;1;283;7032;0;2;0;10492;0;0;0;0;3;0;6318;0;0;0;0;4;0;8298;0;0;0;0;5;0;18905;0;0;0;0;0;0;6;0;14378;0;0;0;0;0;0;7;0;12712;0;0;0;0;8;0;12305;0;0;0;0;9;0;6439;0;0;0;0
20.10.18;23:35:00;1;289;7008;0;2;0;10492;0;0;0;0;3;0;6318;0;0;0;0;4;0;8298;0;0;0;0;5;0;18905;0;0;0;0;0;0;6;0;14378;0;0;0;0;0;0;7;0;12712;0;0;0;0;8;0;12305;0;0;0;0;9;0;6439;0;0;0;0
20.10.18;23:30:00;1;290;6984;0;2;0;10492;0;0;0;0;3;0;6318;0;0;0;0;4;0;8298;0;0;0;0;5;0;18905;0;0;0;0;0;0;6;0;14378;0;0;0;0;0;0;7;0;12712;0;0;0;0;8;0;12305;0;0;0;0;9;0;6439;0;0;0;0
20.10.18;23:25:00;1;288;6959;0;2;0;10492;0;0;0;0;3;0;6318;0;0;0;0;4;0;8298;0;0;0;0;5;0;18905;0;0;0;0;0;0;6;0;14378;0;0;0;0;0;0;7;0;12712;0;0;0;0;8;0;12305;0;0;0;0;9;0;6439;0;0;0;0
20.10.18;23:20:00;1;254;6934;0;2;0;10492;0;0;0;0;3;0;6318;0;0;0;0;4;0;8298;0;0;0;0;5;0;18905;0;0;0;0;0;0;6;0;14378;0;0;0;0;0;0;7;0;12712;0;0;0;0;8;0;12305;0;0;0;0;9;0;6439;0;0;0;0
20.10.18;23:15:00;1;250;6913;0;2;0;10492;0;0;0;0;3;0;6318;0;0;0;0;4;0;8298;0;0;0;0;5;0;18905;0;0;0;0;0;0;6;0;14378;0;0;0;0;0;0;7;0;12712;0;0;0;0;8;0;12305;0;0;0;0;9;0;6439;0;0;0;0
20.10.18;23:10:00;1;251;6892;0;2;0;10492;0;0;0;0;3;0;6318;0;0;0;0;4;0;8298;0;0;0;0;5;0;18905;0;0;0;0;0;0;6;0;14378;0;0;0;0;0;0;7;0;12712;0;0;0;0;8;0;12305;0;0;0;0;9;0;6439;0;0;0;0
20.10.18;23:05:00;1;251;6871;0;2;0;10492;0;0;0;0;3;0;6318;0;0;0;0;4;0;8298;0;0;0;0;5;0;18905;0;0;0;0;0;0;6;0;14378;0;0;0;0;0;0;7;0;12712;0;0;0;0;8;0;12305;0;0;0;0;9;0;6439;0;0;0;0
20.10.18;23:00:00;1;250;6850;0;2;0;10492;0;0;0;0;3;0;6318;0;0;0;0;4;0;8298;0;0;0;0;5;0;18905;0;0;0;0;0;0;6;0;14378;0;0;0;0;0;0;7;0;12712;0;0;0;0;8;0;12305;0;0;0;0;9;0;6439;0;0;0;0
20.10.18;22:55:00;1;250;6829;0;2;0;10492;0;0;0;0;3;0;6318;0;0;0;0;4;0;8298;0;0;0;0;5;0;18905;2;0;0;0;0;0;6;0;14378;2;0;0;0;0;0;7;0;12712;0;0;0;0;8;0;12305;0;0;0;0;9;0;6439;0;0;0;0
20.10.18;22:50:00;1;245;6808;0;2;0;10492;0;0;0;0;3;0;6318;0;0;0;0;4;0;8298;0;0;0;0;5;0;18905;2;0;0;0;0;0;6;0;14378;2;0;0;0;0;0;7;0;12712;0;0;0;0;8;0;12305;0;0;0;0;9;0;6439;0;0;0;0
20.10.18;22:45:00;1;245;6787;0;2;0;10492;0;0;0;0;3;0;6318;0;0;0;0;4;0;8298;0;0;0;0;5;0;18905;2;0;0;0;0;0;6;0;14378;2;0;0;0;0;0;7;0;12712;0;0;0;0;8;0;12305;0;0;0;0;9;0;6439;0;0;0;0
20.10.18;22:40:00;1;265;6767;0;2;0;10492;0;0;0;0;3;0;6318;0;0;0;0;4;0;8298;0;0;0;0;5;0;18905;2;0;0;0;0;0;6;0;14378;2;0;0;0;0;0;7;0;12712;0;0;0;0;8;0;12305;0;0;0;0;9;0;6439;0;0;0;0
20.10.18;22:35:00;1;284;6744;0;2;0;10492;0;0;0;0;3;0;6318;0;0;0;0;4;0;8298;0;0;0;0;5;0;18905;2;0;0;0;0;0;6;0;14378;2;0;0;0;0;0;7;0;12712;0;0;0;0;8;0;12305;0;0;0;0;9;0;6439;0;0;0;0
20.10.18;22:30:00;1;267;6720;0;2;0;10492;0;0;0;0;3;0;6318;0;0;0;0;4;0;8298;0;0;0;0;5;0;18905;2;0;0;0;0;0;6;0;14378;2;0;0;0;0;0;7;0;12712;0;0;0;0;8;0;12305;0;0;0;0;9;0;6439;0;0;0;0
20.10.18;22:25:00;1;267;6698;0;2;0;10492;0;0;0;0;3;0;6318;0;0;0;0;4;0;8298;0;0;0;0;5;0;18905;2;0;0;0;0;0;6;0;14378;2;0;0;0;0;0;7;0;12712;0;0;0;0;8;0;12305;0;0;0;0;9;0;6439;0;0;0;0
20.10.18;22:20:00;1;268;6675;0;2;0;10492;0;0;0;0;3;0;6318;0;0;0;0;4;0;8298;0;0;0;0;5;0;18905;2;0;0;0;0;0;6;0;14378;2;0;0;0;0;0;7;0;12712;0;0;0;0;8;0;12305;0;0;0;0;9;0;6439;0;0;0;0
20.10.18;22:15:00;1;269;6653;0;2;0;10492;0;0;0;0;3;0;6318;0;0;0;0;4;0;8298;0;0;0;0;5;0;18905;2;0;0;0;0;0;6;0;14378;2;0;0;0;0;0;7;0;12712;0;0;0;0;8;0;12305;0;0;0;0;9;0;6439;0;0;0;0
20.10.18;22:10:00;1;269;6631;0;2;0;10492;0;0;0;0;3;0;6318;0;0;0;0;4;0;8298;0;0;0;0;5;0;18905;2;0;0;0;0;0;6;0;14378;2;0;0;0;0;0;7;0;12712;0;0;0;0;8;0;12305;0;0;0;0;9;0;6439;0;0;0;0
20.10.18;22:05:00;1;275;6608;0;2;0;10492;0;0;0;0;3;0;6318;0;0;0;0;4;0;8298;0;0;0;0;5;0;18905;2;0;0;0;0;0;6;0;14378;2;0;0;0;0;0;7;0;12712;0;0;0;0;8;0;12305;0;0;0;0;9;0;6439;0;0;0;0
20.10.18;22:00:00;1;319;6585;0;2;0;10492;0;0;0;0;3;0;6318;0;0;0;0;4;0;8298;0;0;0;0;5;0;18905;2;0;0;0;0;0;6;0;14378;2;0;0;0;0;0;7;0;12712;0;0;0;0;8;0;12305;0;0;0;0;9;0;6439;0;0;0;0
20.10.18;21:55:00;1;254;6562;0;2;0;10492;0;0;0;0;3;0;6318;0;0;0;0;4;0;8298;0;0;0;0;5;0;18905;2;0;0;0;0;0;6;0;14378;2;0;0;0;0;0;7;0;12712;0;0;0;0;8;0;12305;0;0;0;0;9;0;6439;0;0;0;0
20.10.18;21:50:00;1;254;6541;0;2;0;10492;0;0;0;0;3;0;6318;0;0;0;0;4;0;8298;0;0;0;0;5;0;18905;2;0;0;0;0;0;6;0;14378;2;0;0;0;0;0;7;0;12712;0;0;0;0;8;0;12305;0;0;0;0;9;0;6439;0;0;0;0
20.10.18;21:45:00;1;224;6520;0;2;0;10492;0;0;0;0;3;0;6318;0;0;0;0;4;0;8298;0;0;0;0;5;0;18905;2;0;0;0;0;0;6;0;14378;2;0;0;0;0;0;7;0;12712;0;0;0;0;8;0;12305;0;0;0;0;9;0;6439;0;0;0;0
20.10.18;21:40:00;1;210;6500;0;2;0;10492;0;0;0;0;3;0;6318;0;0;0;0;4;0;8298;0;0;0;0;5;0;18905;2;0;0;0;0;0;6;0;14378;2;0;0;0;0;0;7;0;12712;0;0;0;0;8;0;12305;0;0;0;0;9;0;6439;0;0;0;0
20.10.18;21:35:00;1;217;6483;0;2;0;10492;0;0;0;0;3;0;6318;0;0;0;0;4;0;8298;0;0;0;0;5;0;18905;2;0;0;0;0;0;6;0;14378;2;0;0;0;0;0;7;0;12712;0;0;0;0;8;0;12305;0;0;0;0;9;0;6439;0;0;0;0
20.10.18;21:30:00;1;210;6465;0;2;0;10492;0;0;0;0;3;0;6318;0;0;0;0;4;0;8298;0;0;0;0;5;0;18905;2;0;0;0;0;0;6;0;14378;2;0;0;0;0;0;7;0;12712;0;0;0;0;8;0;12305;0;0;0;0;9;0;6439;0;0;0;0
20.10.18;21:25:00;1;210;6447;0;2;0;10492;0;0;0;0;3;0;6318;0;0;0;0;4;0;8298;0;0;0;0;5;0;18905;2;0;0;0;0;0;6;0;14378;2;0;0;0;0;0;7;0;12712;0;0;0;0;8;0;12305;0;0;0;0;9;0;6439;0;0;0;0
20.10.18;21:20:00;1;210;6429;0;2;0;10492;0;0;0;0;3;0;6318;0;0;0;0;4;0;8298;0;0;0;0;5;0;18905;2;0;0;0;0;0;6;0;14378;2;0;0;0;0;0;7;0;12712;0;0;0;0;8;0;12305;0;0;0;0;9;0;6439;0;0;0;0
20.10.18;21:15:00;1;210;6412;0;2;0;10492;0;0;0;0;3;0;6318;0;0;0;0;4;0;8298;0;0;0;0;5;0;18905;2;0;0;0;0;0;6;0;14378;2;0;0;0;0;0;7;0;12712;0;0;0;0;8;0;12305;0;0;0;0;9;0;6439;0;0;0;0
20.10.18;21:10:00;1;252;6394;0;2;0;10492;0;0;0;0;3;0;6318;0;0;0;0;4;0;8298;0;0;0;0;5;0;18905;2;0;0;0;0;0;6;0;14378;2;0;0;0;0;0;7;0;12712;0;0;0;0;8;0;12305;0;0;0;0;9;0;6439;0;0;0;0
20.10.18;21:05:00;1;254;6373;0;2;0;10492;0;0;0;0;3;0;6318;0;0;0;0;4;0;8298;0;0;0;0;5;0;18905;2;0;0;0;0;0;6;0;14378;2;0;0;0;0;0;7;0;12712;0;0;0;0;8;0;12305;0;0;0;0;9;0;6439;0;0;0;0
20.10.18;21:00:00;1;255;6352;0;2;0;10492;0;0;0;0;3;0;6318;0;0;0;0;4;0;8298;0;0;0;0;5;0;18905;2;0;0;0;0;0;6;0;14378;2;0;0;0;0;0;7;0;12712;0;0;0;0;8;0;12305;0;0;0;0;9;0;6439;0;0;0;0
20.10.18;20:55:00;1;230;6330;0;2;0;10492;0;0;0;0;3;0;6318;0;0;0;0;4;0;8298;0;0;0;0;5;0;18905;2;0;0;0;0;0;6;0;14378;2;0;0;0;0;0;7;0;12712;0;0;0;0;8;0;12305;0;0;0;0;9;0;6439;0;0;0;0
20.10.18;20:50:00;1;210;6312;0;2;0;10492;0;0;0;0;3;0;6318;0;0;0;0;4;0;8298;0;0;0;0;5;0;18905;2;0;0;0;0;0;6;0;14378;2;0;0;0;0;0;7;0;12712;0;0;0;0;8;0;12305;0;0;0;0;9;0;6439;0;0;0;0
20.10.18;20:45:00;1;210;6294;0;2;0;10492;0;0;0;0;3;0;6318;0;0;0;0;4;0;8298;0;0;0;0;5;0;18905;2;0;0;0;0;0;6;0;14378;2;0;0;0;0;0;7;0;12712;0;0;0;0;8;0;12305;0;0;0;0;9;0;6439;0;0;0;0
20.10.18;20:40:00;1;210;6277;0;2;0;10492;0;0;0;0;3;0;6318;0;0;0;0;4;0;8298;0;0;0;0;5;0;18905;2;0;0;0;0;0;6;0;14378;2;0;0;0;0;0;7;0;12712;0;0;0;0;8;0;12305;0;0;0;0;9;0;6439;0;0;0;0
20.10.18;20:35:00;1;209;6259;0;2;0;10492;0;0;0;0;3;0;6318;0;0;0;0;4;0;8298;0;0;0;0;5;0;18905;2;0;0;0;0;0;6;0;14378;2;0;0;0;0;0;7;0;12712;0;0;0;0;8;0;12305;0;0;0;0;9;0;6439;0;0;0;0
20.10.18;20:30:00;1;210;6242;0;2;0;10492;0;0;0;0;3;0;6318;0;0;0;0;4;0;8298;0;0;0;0;5;0;18905;2;0;0;0;0;0;6;0;14378;2;0;0;0;0;0;7;0;12712;0;0;0;0;8;0;12305;0;0;0;0;9;0;6439;0;0;0;0
20.10.18;20:25:00;1;262;6224;0;2;0;10492;0;0;0;0;3;0;6318;0;0;0;0;4;0;8298;0;0;0;0;5;0;18905;2;0;0;0;0;0;6;0;14378;2;0;0;0;0;0;7;0;12712;0;0;0;0;8;0;12305;0;0;0;0;9;0;6439;0;0;0;0
20.10.18;20:20:00;1;315;6201;0;2;0;10492;0;0;0;0;3;0;6318;0;0;0;0;4;0;8298;0;0;0;0;5;0;18905;2;0;0;0;0;0;6;0;14378;2;0;0;0;0;0;7;0;12712;0;0;0;0;8;0;12305;0;0;0;0;9;0;6439;0;0;0;0
20.10.18;20:15:00;1;337;6175;0;2;0;10492;0;0;0;0;3;0;6318;0;0;0;0;4;0;8298;0;0;0;0;5;0;18905;2;0;0;0;0;0;6;0;14378;2;0;0;0;0;0;7;0;12712;0;0;0;0;8;0;12305;0;0;0;0;9;0;6439;0;0;0;0
20.10.18;20:10:00;1;366;6147;0;2;0;10492;0;0;0;0;3;0;6318;0;0;0;0;4;0;8298;0;0;0;0;5;0;18905;2;0;0;0;0;0;6;0;14378;2;0;0;0;0;0;7;0;12712;0;0;0;0;8;0;12305;0;0;0;0;9;0;6439;0;0;0;0
20.10.18;20:05:00;1;329;6117;0;2;0;10492;0;0;0;0;3;0;6318;0;0;0;0;4;0;8298;0;0;0;0;5;0;18905;2;0;0;0;0;0;6;0;14378;2;0;0;0;0;0;7;0;12712;0;0;0;0;8;0;12305;0;0;0;0;9;0;6439;0;0;0;0
20.10.18;20:00:00;1;324;6089;0;2;0;10492;0;0;0;0;3;0;6318;0;0;0;0;4;0;8298;0;0;0;0;5;0;18905;2;0;0;0;0;0;6;0;14378;2;0;0;0;0;0;7;0;12712;0;0;0;0;8;0;12305;0;0;0;0;9;0;6439;0;0;0;0
20.10.18;19:55:00;1;324;6062;0;2;0;10492;0;0;0;0;3;0;6318;0;0;0;0;4;0;8298;0;0;0;0;5;0;18905;2;0;0;0;0;0;6;0;14378;2;0;0;0;0;0;7;0;12712;0;0;0;0;8;0;12305;0;0;0;0;9;0;6439;0;0;0;0
20.10.18;19:50:00;1;316;6035;0;2;0;10492;0;0;0;0;3;0;6318;0;0;0;0;4;0;8298;0;0;0;0;5;0;18905;2;0;0;0;0;0;6;0;14378;2;0;0;0;0;0;7;0;12712;0;0;0;0;8;0;12305;0;0;0;0;9;0;6439;0;0;0;0
20.10.18;19:45:00;1;258;6009;0;2;0;10492;0;0;0;0;3;0;6318;0;0;0;0;4;0;8298;0;0;0;0;5;0;18905;2;0;0;0;0;0;6;0;14378;2;0;0;0;0;0;7;0;12712;0;0;0;0;8;0;12305;0;0;0;0;9;0;6439;0;0;0;0
20.10.18;19:40:00;1;227;5988;0;2;0;10492;0;0;0;0;3;0;6318;0;0;0;0;4;0;8298;0;0;0;0;5;0;18905;2;0;0;0;0;0;6;0;14378;2;0;0;0;0;0;7;0;12712;0;0;0;0;8;0;12305;0;0;0;0;9;0;6439;0;0;0;0
20.10.18;19:35:00;1;227;5969;0;2;0;10492;0;0;0;0;3;0;6318;0;0;0;0;4;0;8298;0;0;0;0;5;0;18905;2;0;0;0;0;0;6;0;14378;2;0;0;0;0;0;7;0;12712;0;0;0;0;8;0;12305;0;0;0;0;9;0;6439;0;0;0;0
20.10.18;19:30:00;1;286;5949;0;2;0;10492;0;0;0;0;3;0;6318;0;0;0;0;4;0;8298;0;0;0;0;5;0;18905;2;0;0;0;0;0;6;0;14378;2;0;0;0;0;0;7;0;12712;0;0;0;0;8;0;12305;0;0;0;0;9;0;6439;0;0;0;0
20.10.18;19:25:00;1;329;5925;0;2;0;10492;0;0;0;0;3;0;6318;0;0;0;0;4;0;8298;0;0;0;0;5;0;18905;2;0;0;0;0;0;6;0;14378;2;0;0;0;0;0;7;0;12712;0;0;0;0;8;0;12305;0;0;0;0;9;0;6439;0;0;0;0
20.10.18;19:20:00;1;327;5898;0;2;0;10492;0;0;0;0;3;0;6318;0;0;0;0;4;0;8298;0;0;0;0;5;0;18905;2;0;0;0;0;0;6;0;14378;2;0;0;0;0;0;7;0;12712;0;0;0;0;8;0;12305;0;0;0;0;9;0;6439;0;0;0;0
20.10.18;19:15:00;1;297;5870;0;2;0;10492;0;0;0;0;3;0;6318;0;0;0;0;4;0;8298;0;0;0;0;5;0;18905;2;0;0;0;0;0;6;0;14378;2;0;0;0;0;0;7;0;12712;0;0;0;0;8;0;12305;0;0;0;0;9;0;6439;0;0;0;0
20.10.18;19:10:00;1;270;5845;0;2;0;10492;0;0;0;0;3;0;6318;0;0;0;0;4;0;8298;0;0;0;0;5;0;18905;2;0;0;0;0;0;6;0;14378;2;0;0;0;0;0;7;0;12712;0;0;0;0;8;0;12305;0;0;0;0;9;0;6439;0;0;0;0
20.10.18;19:05:00;1;269;5823;0;2;0;10492;0;0;0;0;3;0;6318;0;0;0;0;4;0;8298;0;0;0;0;5;0;18905;2;0;0;0;0;0;6;0;14378;2;0;0;0;0;0;7;0;12712;0;0;0;0;8;0;12305;0;0;0;0;9;0;6439;0;0;0;0
20.10.18;19:00:00;1;271;5800;0;2;0;10492;0;0;0;0;3;0;6318;0;0;0;0;4;0;8298;0;0;0;0;5;0;18905;2;0;0;0;0;0;6;0;14378;2;0;0;0;0;0;7;0;12712;0;0;0;0;8;0;12305;0;0;0;0;9;0;6439;0;0;0;0
20.10.18;18:55:00;1;978;5777;0;2;0;10492;0;0;0;0;3;0;6318;0;0;0;0;4;0;8298;0;0;0;0;5;0;18905;2;0;0;0;0;0;6;0;14378;2;0;0;0;0;0;7;0;12712;0;0;0;0;8;0;12305;0;0;0;0;9;0;6439;0;0;0;0
20.10.18;18:50:00;1;507;5668;0;2;0;10492;0;0;0;0;3;0;6318;0;0;0;0;4;0;8298;0;0;0;0;5;0;18905;2;0;0;0;0;0;6;0;14378;2;0;0;0;0;0;7;0;12712;0;0;0;0;8;0;12305;0;0;0;0;9;0;6439;0;0;0;0
20.10.18;18:45:00;1;210;5634;0;2;0;10492;0;0;0;0;3;0;6318;0;0;0;0;4;0;8298;0;0;0;0;5;0;18905;2;0;0;0;0;0;6;0;14378;2;0;0;0;0;0;7;0;12712;0;0;0;0;8;0;12305;0;0;0;0;9;0;6439;0;0;0;0
20.10.18;18:40:00;1;247;5616;0;2;0;10492;0;0;0;0;3;0;6318;0;0;0;0;4;0;8298;0;0;0;0;5;0;18905;2;0;0;0;0;0;6;0;14378;2;0;0;0;0;0;7;0;12712;0;0;0;0;8;0;12305;0;0;0;0;9;0;6439;0;0;0;0
20.10.18;18:35:00;1;252;5596;0;2;0;10492;0;0;0;0;3;0;6318;0;0;0;0;4;0;8298;0;0;0;0;5;0;18905;2;0;0;0;0;0;6;0;14378;2;0;0;0;0;0;7;0;12712;0;0;0;0;8;0;12305;0;0;0;0;9;0;6439;0;0;0;0
20.10.18;18:30:00;1;254;5575;0;2;0;10492;0;0;131;11;3;0;6318;0;0;238;20;4;0;8298;0;0;9;3;5;0;18905;2;0;0;0;0;0;6;0;14378;2;0;0;0;0;0;7;0;12712;0;0;0;0;8;0;12305;0;0;0;0;9;0;6439;0;0;0;0
20.10.18;18:25:00;1;290;5553;0;2;0;10492;6;0;307;23;3;0;6318;6;0;364;24;4;0;8298;2;0;85;23;5;0;18905;2;0;0;24;24;10;6;0;14378;0;0;0;0;0;0;7;0;12712;0;0;0;0;8;0;12305;0;0;0;0;9;0;6439;0;0;0;0
20.10.18;18:20:00;1;208;5534;0;2;0;10492;6;0;340;23;3;0;6318;6;2;410;25;4;0;8298;1;0;126;23;5;0;18905;1;0;0;361;393;32;6;0;14378;23;7;4;438;180;30;7;0;12712;0;0;0;0;8;0;12305;0;0;116;10;9;0;6439;6;0;286;21
20.10.18;18:15:00;1;220;5516;0;2;0;10492;6;0;370;24;3;0;6318;6;2;446;25;4;0;8298;1;0;177;24;5;0;18905;23;0;0;396;571;32;6;0;14378;23;2;8;472;253;31;7;0;12712;0;0;215;15;8;0;12305;6;0;359;25;9;0;6439;6;0;299;17
20.10.18;18:10:00;1;272;5498;0;2;0;10492;6;0;389;24;3;2;6318;6;9;444;25;4;0;8298;1;0;205;24;5;8;18904;4;0;0;401;628;33;6;0;14378;23;11;0;182;557;31;7;0;12712;0;0;0;0;8;0;12305;6;0;80;5;9;0;6439;3;0;254;13
20.10.18;18:05:00;1;274;5475;0;2;0;10492;6;0;407;25;3;2;6318;6;5;498;26;4;0;8298;3;0;217;25;5;80;18904;4;6;13;367;582;34;6;32;14378;1;16;19;397;485;32;7;3;12712;3;7;118;9;8;0;12305;0;0;153;8;9;0;6439;0;0;0;0
20.10.18;18:00:00;1;274;5452;0;2;43;10492;4;77;363;26;3;2;6318;4;7;512;26;4;10;8298;3;10;199;25;5;123;18897;4;30;34;367;582;34;6;67;14375;4;22;35;304;444;33;7;0;12710;0;0;0;0;8;0;12305;0;0;81;4;9;0;6439;0;0;0;0
20.10.18;17:55:00;1;274;5429;0;2;75;10488;4;118;357;27;3;23;6317;3;41;498;27;4;24;8297;3;25;197;26;5;170;18886;4;60;59;367;582;34;6;94;14369;4;41;56;303;444;33;7;44;12710;0;66;275;18;8;19;12305;0;33;136;9;9;3;6439;0;8;251;11
20.10.18;17:50:00;1;306;5405;0;2;133;10482;4;168;362;27;3;75;6316;4;112;460;28;4;79;8295;3;82;198;26;5;233;18872;4;92;92;367;582;34;6;130;14361;4;56;76;304;444;33;7;0;12692;0;0;0;0;8;19;12297;0;26;68;4;9;7;6439;0;12;71;4
20.10.18;17:45:00;1;526;5374;0;2;196;10471;4;234;373;28;3;114;6309;4;155;498;28;4;138;8288;5;143;217;27;5;312;18852;4;139;124;367;582;34;6;180;14350;4;76;103;322;444;33;7;0;12692;0;0;0;0;8;72;12295;4;90;221;14;9;14;6434;0;19;79;4
20.10.18;17:40:00;1;530;5330;0;2;317;10454;4;362;388;29;3;188;6300;4;230;500;29;4;246;8277;5;256;225;27;5;475;18825;4;228;201;392;594;34;6;355;14334;4;173;186;526;521;33;7;87;12692;4;103;157;9;8;132;12280;0;153;221;14;9;0;6434;0;0;0;0
20.10.18;17:35:00;1;512;5285;0;2;475;10428;4;528;395;29;3;285;6284;4;333;516;29;4;381;8256;5;397;228;27;5;698;18784;4;336;300;401;623;34;6;529;14303;4;281;295;573;536;33;7;152;12666;0;162;132;8;8;0;12230;0;0;0;0;9;0;6434;0;0;0;0
20.10.18;17:30:00;1;533;5241;0;2;713;10388;4;775;399;30;3;411;6260;4;468;541;29;4;574;8224;5;598;237;28;5;979;18724;4;484;408;403;665;35;6;746;14257;4;375;385;571;552;33;7;0;12549;0;0;0;0;8;206;12230;0;227;158;9;9;0;6434;0;0;0;0
20.10.18;17:25:00;1;609;5196;0;2;861;10329;4;925;398;31;3;490;6226;4;550;547;30;4;681;8177;5;709;240;28;5;1158;18641;4;588;491;407;630;35;6;898;14194;4;443;452;581;554;34;7;346;12549;0;366;153;10;8;0;12120;0;0;0;0;9;0;6434;0;0;0;0
20.10.18;17:20:00;1;382;5145;0;2;907;10258;4;975;404;31;3;514;6185;4;573;543;30;4;716;8120;5;745;239;28;5;1258;18544;4;637;539;405;656;35;6;969;14119;4;495;497;581;547;34;7;412;12521;4;440;187;12;8;561;12120;0;594;291;17;9;219;6434;0;242;310;15
20.10.18;17:15:00;1;270;5116;0;2;978;10182;4;1047;405;32;3;568;6143;4;632;549;30;4;797;8061;5;830;241;28;5;1388;18438;4;707;601;410;645;35;6;1075;14037;4;561;555;580;558;34;7;393;12402;0;418;160;10;8;831;12076;4;886;388;24;9;64;6412;4;72;90;4
20.10.18;17:10:00;1;213;5097;0;2;939;10101;4;1006;405;32;3;566;6095;4;630;538;30;4;762;7994;5;794;238;28;5;1370;18321;4;702;592;404;639;35;6;1068;13947;4;564;569;577;557;34;7;1141;12337;4;1211;474;30;8;804;11993;4;853;352;24;9;165;6380;4;185;214;10
20.10.18;17:05:00;1;229;5079;0;2;1014;10022;4;1084;386;33;3;569;6048;4;624;449;30;4;789;7930;5;822;237;29;5;1490;18206;4;772;645;409;648;35;6;1150;13859;4;606;585;580;556;34;7;1209;12243;4;1279;464;30;8;1105;11911;4;1170;443;30;9;414;6345;4;464;485;27
20.10.18;17:00:00;1;293;5059;0;2;1402;9938;4;1486;387;34;3;778;6001;4;839;431;31;4;1045;7865;5;1089;244;29;5;1959;18079;4;1020;861;411;671;35;6;1513;13761;4;765;752;587;567;34;7;1682;12142;4;1772;471;30;8;1254;11818;4;1319;365;24;9;450;6310;4;485;357;27
20.10.18;16:55:00;1;303;5035;0;2;1660;9821;4;1752;384;34;3;922;5936;4;986;428;31;4;1207;7778;5;1257;242;29;5;2309;17913;4;1208;1011;419;667;35;6;1775;13633;4;891;871;586;568;34;7;2003;12001;4;2108;468;31;8;1934;11687;4;2036;465;30;9;299;6273;4;321;176;14
20.10.18;16:50:00;1;305;5009;0;2;1695;9684;4;1788;387;35;3;939;5860;4;1004;448;31;4;1196;7678;5;1246;241;29;5;2366;17720;4;1235;1041;416;670;35;6;1829;13485;4;914;895;589;568;34;7;423;11704;0;444;95;6;8;2050;11526;4;2150;465;30;9;313;6189;0;335;154;11
20.10.18;16:45:00;1;280;4984;0;2;1685;9542;4;1780;389;35;3;946;5781;4;1011;440;31;4;1179;7578;5;1228;245;29;5;2448;17520;4;1294;1080;416;671;35;6;1905;13331;4;986;972;588;569;34;7;1676;11660;4;1762;377;24;8;2047;11357;4;2153;470;30;9;706;6161;4;753;346;23
20.10.18;16:40:00;1;263;4960;0;2;1752;9402;4;1849;392;35;3;996;5702;4;1062;434;31;4;1207;7479;5;1257;245;29;5;2554;17315;4;1352;1122;419;666;36;6;1977;13172;4;1028;1026;584;566;34;7;2198;11484;4;2316;463;31;8;1751;11184;4;1842;368;24;9;602;6088;4;639;276;18
20.10.18;16:35:00;1;253;4938;0;2;1678;9256;4;1773;392;35;3;921;5619;4;982;418;31;4;1132;7379;5;1179;249;29;5;2443;17103;4;1305;1064;412;679;36;6;1886;13007;4;963;947;587;570;34;7;2044;11302;4;2151;464;31;8;1167;11003;4;1229;271;18;9;1018;6005;4;1085;486;30
20.10.18;16:30:00;1;215;4917;0;2;1901;9115;4;2004;389;36;3;1040;5542;4;1106;427;31;4;1233;7284;5;1284;254;29;5;2730;16898;4;1457;1204;413;675;36;6;2124;12848;4;1105;1076;587;572;34;7;2309;11133;4;2426;469;31;8;1847;10803;0;1939;373;24;9;1172;5922;4;1250;504;30
20.10.18;16:25:00;1;214;4899;0;2;2042;8957;4;2151;390;36;3;1122;5455;4;1188;419;32;4;1270;7182;5;1322;249;29;5;2932;16669;4;1557;1289;415;682;36;6;2266;12671;4;1159;1134;589;563;34;7;2522;10940;4;2651;463;31;8;2023;10585;0;2124;373;24;9;1320;5824;4;1404;521;31
20.10.18;16:20:00;1;215;4881;0;2;2091;8789;4;2205;393;36;3;1134;5363;4;1205;421;32;4;1264;7076;5;1316;247;29;5;2962;16424;4;1578;1301;418;676;36;6;2304;12481;4;1196;1170;593;569;34;7;1042;10634;0;1092;188;12;8;483;10445;4;505;97;6;9;1083;5714;4;1153;413;24
20.10.18;16:15:00;1;225;4863;0;2;2059;8615;4;2172;396;36;3;1114;5269;4;1182;424;32;4;1220;6971;5;1270;246;29;5;2942;16178;4;1577;1295;413;672;36;6;2287;12291;4;1167;1144;589;569;34;7;1570;10405;0;1642;280;18;8;1534;10142;0;1611;275;18;9;276;5543;0;290;105;6
20.10.18;16:10:00;1;259;4843;0;2;2139;8445;4;2253;393;37;3;1093;5176;4;1163;455;32;4;1250;6869;5;1302;252;30;5;3102;15933;4;1664;1363;417;672;36;6;2396;12101;4;1239;1210;589;565;34;7;2116;10256;0;2216;369;24;8;2020;10040;4;2120;375;24;9;1090;5465;0;1153;420;24
20.10.18;16:05:00;1;263;4821;0;2;2198;8266;4;2320;408;37;3;1042;5085;4;1119;507;32;4;1350;6765;5;1406;248;30;5;3245;15673;4;1739;1433;418;667;36;6;2502;11900;4;1298;1261;593;569;34;7;2748;10082;4;2886;471;31;8;2198;9829;4;2306;380;24;9;1434;5374;4;1527;520;31
20.10.18;16:00:00;1;1483;4799;0;2;1964;8084;4;2078;407;36;3;986;4998;4;1059;491;32;4;1307;6654;5;1362;249;30;5;3026;15399;4;1611;1334;407;672;36;6;2367;11688;4;1243;1190;594;568;34;7;1770;9854;4;1861;287;18;8;2521;9605;4;2649;460;31;9;1176;5255;4;1254;423;24
20.10.18;15:55:00;1;399;4694;0;2;1121;7916;4;1195;389;36;3;587;4915;4;643;456;32;4;813;6543;5;846;235;30;5;1837;15149;4;955;798;410;650;36;6;1420;11494;4;712;708;574;555;34;7;1164;9600;4;1233;379;26;8;929;9392;4;984;308;20;9;0;5021;0;0;0;0
20.10.18;15:50:00;1;2443;4634;0;2;1549;7820;4;1642;388;37;3;832;4865;4;891;432;32;4;1146;6473;5;1194;238;30;5;2501;14997;4;1318;1094;408;658;36;6;1901;11375;4;1007;971;570;558;34;7;1393;9471;4;1468;364;25;8;821;9212;0;865;181;12;9;216;5021;0;233;101;6
20.10.18;15:45:00;1;1523;4418;0;2;2196;7691;4;2316;388;38;3;1206;4795;4;1277;426;33;4;1600;6377;5;1666;237;31;5;3464;14785;4;1872;1536;409;666;36;6;2700;11212;4;1400;1359;584;565;34;7;2391;9325;4;2509;462;32;8;1480;9139;4;1552;273;19;9;730;4942;0;783;306;19
20.10.18;15:40:00;1;275;4296;0;2;2744;7514;4;2888;390;38;3;1493;4698;4;1575;419;33;4;1918;6247;5;1998;236;31;5;4222;14499;4;2287;1885;410;656;36;6;3268;10993;4;1692;1634;582;557;34;7;2508;9128;4;2631;368;25;8;0;8642;0;0;0;0;9;1397;4871;4;1480;400;25
20.10.18;15:35:00;1;278;4271;0;2;2676;7289;4;2819;393;38;3;1462;4576;4;1540;422;33;4;1892;6090;5;1971;236;31;5;4205;14141;4;2282;1874;411;663;36;6;3267;10716;4;1697;1645;586;555;34;7;3220;8866;4;3374;453;32;8;1943;8642;0;2036;276;18;9;1361;4725;4;1447;397;25
20.10.18;15:30:00;1;277;4248;0;2;2757;7068;4;2901;391;38;3;1531;4455;4;1617;430;33;4;1980;5933;5;2063;237;31;5;4415;13792;4;2388;1961;412;666;36;6;3398;10447;4;1759;1709;584;563;34;7;1773;8605;4;1852;228;16;8;590;8406;0;620;76;5;9;311;4590;4;327;83;5
20.10.18;15:25:00;1;322;4225;0;2;2870;6838;4;3021;383;38;3;1661;4327;4;1757;459;33;4;2102;5768;5;2189;235;30;5;4674;13423;4;2548;2088;409;664;36;6;3622;10162;4;1875;1822;585;556;34;7;3703;8315;4;3879;452;31;8;1218;7965;0;1276;152;10;9;1323;4404;0;1394;336;21
20.10.18;15:20:00;1;253;4199;0;2;2938;6598;4;3089;389;37;3;1777;4188;4;1882;488;33;4;2159;5592;5;2249;233;30;5;4807;13033;4;2617;2142;411;662;35;6;3700;9861;4;1931;1867;579;561;34;7;2164;8004;4;2260;276;18;8;1428;7740;0;1496;178;12;9;1529;4266;4;1614;396;25
20.10.18;15:15:00;1;278;4178;0;2;2948;6352;4;3103;393;36;3;1865;4040;4;1975;502;33;4;2245;5412;5;2339;236;30;5;4910;12628;4;2683;2191;410;668;35;6;3809;9549;4;1979;1924;584;565;33;7;3255;7645;0;3426;379;25;8;651;7566;4;684;76;5;9;1055;4111;4;1118;253;15
20.10.18;15:10:00;1;283;4155;0;2;2858;6106;4;3009;398;36;3;1847;3884;4;1958;504;32;4;2240;5224;5;2334;234;29;5;4871;12220;4;2644;2177;409;667;35;6;3780;9231;4;1975;1931;582;558;33;7;3061;7387;4;3198;363;24;8;772;7241;4;806;92;6;9;802;3879;0;851;203;12
20.10.18;15:05:00;1;239;4132;0;2;2887;5868;4;3037;396;34;3;1862;3730;4;1974;504;32;4;2320;5038;5;2417;235;29;5;4973;11812;4;2713;2227;411;662;34;6;3868;8916;4;2002;1933;581;562;33;7;3148;7000;0;3301;380;24;8;615;6852;0;645;74;4;9;1698;3730;0;1798;415;25
20.10.18;15:00:00;1;211;4111;0;2;2751;5627;4;2897;393;34;3;1766;3575;4;1874;499;31;4;2285;4845;5;2380;233;28;5;4876;11398;4;2653;2178;413;661;34;6;3750;8595;4;1909;1864;584;558;33;7;1489;6749;4;1564;185;11;8;776;6370;0;811;89;5;9;2094;3597;4;2221;510;29
20.10.18;14:55:00;1;211;4093;0;2;3142;5398;4;3305;393;33;3;2021;3429;4;2141;501;31;4;2609;4654;5;2717;234;28;5;5521;10984;4;3017;2473;411;665;33;6;4264;8276;4;2198;2141;580;560;32;7;4097;6434;4;4295;452;28;8;2070;6122;0;2170;230;13;9;341;3418;4;363;87;4
20.10.18;14:50:00;1;216;4076;0;2;3148;5137;4;3310;395;32;3;2021;3261;4;2138;510;30;4;2639;4438;5;2749;236;27;5;5612;10523;4;3059;2508;417;674;32;6;4308;7920;4;2230;2166;586;558;32;7;699;6094;4;731;76;4;8;1936;5794;0;2029;230;13;9;0;2936;0;0;0;0
20.10.18;14:45:00;1;222;4057;0;2;3207;4875;4;3375;394;30;3;2056;3092;4;2177;522;29;4;2708;4218;5;2821;240;25;5;5635;10057;4;3072;2532;417;668;32;6;4407;7560;4;2286;2217;584;570;31;7;2189;5682;0;2292;232;13;8;3576;5627;4;3750;390;21;9;404;2936;0;426;83;4
20.10.18;14:40:00;1;210;4038;0;2;2770;4608;4;2916;414;27;3;1839;2921;4;1950;515;27;4;2431;3993;5;2532;243;24;5;5129;9574;4;2787;2309;419;696;32;6;4104;7187;4;2143;2065;591;584;31;7;1650;5158;0;1724;192;10;8;2913;5266;4;3054;389;20;9;831;2903;4;879;200;10
20.10.18;14:35:00;1;209;4021;0;2;1758;4374;4;1853;412;25;3;1149;2766;4;1230;511;27;4;1554;3787;5;1619;242;24;5;3387;9162;4;1826;1500;423;690;31;6;2592;6867;4;1347;1311;596;574;31;7;2064;5022;4;2157;404;20;8;1037;4826;0;1089;239;12;9;1003;2704;0;1069;437;20